DW2770 Weather Reports


Display with metric or nautical units.
time (UTC)temp
F
wind
direction
speed
MPH
gust
MPH
rain 1hr
in
rain 24hr
in
rain mn
in
humidity
%
barometer
mb
20260507114506 72 138 3.0 9.0 0.00 0.00 0.00 51 1008.2
20260507113032 72 109 4.0 10.0 0.00 0.00 0.00 54 1008.3
20260507111516 72 77 7.0 16.0 0.00 0.00 0.00 53 1008.2
20260507110006 71 127 6.0 10.0 0.00 0.00 0.00 56 1008.4
20260507104504 73 75 4.0 8.0 0.00 0.00 0.00 53 1008.5
20260507103008 76 137 6.0 13.0 0.00 0.00 0.00 45 1008.6
20260507101517 74 360 4.0 11.0 0.00 0.00 0.00 38 1008.3
20260507100020 78 38 3.0 9.0 0.00 0.00 0.00 30 1008.6
20260507094503 77 163 2.0 14.0 0.00 0.00 0.00 27 1008.7
20260507093008 76 96 3.0 19.0 0.00 0.00 0.00 29 1008.6
20260507091511 77 189 2.0 12.0 0.00 0.00 0.00 29 1009.2
20260507090016 76 88 2.0 12.0 0.00 0.00 0.00 31 1009.2
20260507084520 75 68 6.0 15.0 0.00 0.00 0.00 34 1009.3
20260507083005 74 215 7.0 15.0 0.00 0.00 0.00 34 1009.3
20260507081508 73 96 11.0 21.0 0.00 0.00 0.00 35 1009.3
20260507080015 74 94 3.0 11.0 0.00 0.00 0.00 32 1009.7
20260507074518 73 240 4.0 14.0 0.00 0.00 0.00 29 1009.4
20260507073025 73 259 2.0 11.0 0.00 0.00 0.00 30 1009.4
20260507071505 73 85 2.0 13.0 0.00 0.00 0.00 30 1009.4
20260507070013 73 190 3.0 9.0 0.00 0.00 0.00 30 1009.5
20260507064518 73 352 1.0 7.0 0.00 0.00 0.00 31 1009.5
20260507063024 73 77 0.0 3.0 0.00 0.00 0.00 33 1009.6
20260507061506 72 135 1.0 6.0 0.00 0.00 0.00 31 1009.7
20260507060007 71 342 2.0 11.0 0.00 0.00 0.00 33 1009.7
20260507054502 70 102 4.0 9.0 0.00 0.00 0.00 30 1009.6
20260507053002 69 83 4.0 12.0 0.00 0.00 0.00 33 1009.5
20260507051507 68 125 3.0 11.0 0.00 0.00 0.00 33 1009.6
20260507050012 67 92 1.0 7.0 0.00 0.00 0.00 36 1009.5
20260507044512 68 87 2.0 9.0 0.00 0.00 0.00 35 1009.6
20260507043006 68 92 3.0 9.0 0.00 0.00 0.00 34 1009.6
20260507041505 66 78 1.0 8.0 0.00 0.00 0.00 40 1009.7
20260507040006 64 82 5.0 10.0 0.00 0.00 0.00 54 1009.9
20260507034520 64 100 8.0 12.0 0.00 0.00 0.00 59 1010.1
20260507033018 65 96 5.0 11.0 0.00 0.00 0.00 57 1010.1
20260507031502 63 88 3.0 7.0 0.00 0.00 0.00 71 1010.2
20260507030008 62 24 0.0 3.0 0.00 0.00 0.00 78 1010.6
20260507024515 62 331 0.0 3.0 0.00 0.00 0.00 79 1010.8
20260507023012 63 185 0.0 1.0 0.00 0.00 0.00 74 1010.8
20260507021522 63 179 0.0 0.0 0.00 0.00 0.00 71 1011.1
20260507020006 63 179 0.0 2.0 0.00 0.00 0.00 70 1011.2
20260507014509 63 242 0.0 3.0 0.00 0.00 0.00 68 1011.1
20260507013017 64 205 1.0 4.0 0.00 0.00 0.00 68 1010.8
20260507011523 64 228 0.0 7.0 0.00 0.00 0.00 70 1010.8
20260507010024 64 176 0.0 8.0 0.00 0.00 0.00 70 1011.0
20260507004506 64 278 4.0 9.0 0.00 0.00 0.00 69 1011.2
20260507003012 64 246 2.0 7.0 0.00 0.00 0.00 67 1011.3
20260507001544 63 231 3.0 5.0 0.00 0.00 0.00 64 1011.5
20260507000024 64 235 2.0 4.0 0.00 0.00 0.00 67 1011.4
20260506234524 64 237 4.0 9.0 0.00 0.00 0.00 65 1011.3
20260506233012 64 203 1.0 4.0 0.00 0.00 0.00 62 1011.4
20260506224521 64 294 2.0 6.0 0.00 0.00 0.00 67 1011.9
20260506223031 65 242 2.0 6.0 0.00 0.00 0.00 66 1011.8
20260506221512 65 271 2.0 4.0 0.00 0.00 0.00 67 1011.9
20260506220014 65 298 2.0 5.0 0.00 0.00 0.00 66 1012.0
20260506214520 66 219 2.0 4.0 0.00 0.00 0.00 65 1012.0
20260506213005 66 284 2.0 6.0 0.00 0.00 0.00 65 1012.2
20260506211507 66 320 1.0 3.0 0.00 0.00 0.00 55 1012.0
20260506210027 66 69 2.0 4.0 0.00 0.00 0.00 61 1011.9
20260506204502 66 90 3.0 8.0 0.00 0.00 0.00 73 1011.7
20260506203001 69 80 5.0 9.0 0.00 0.00 0.00 56 1011.7
20260506201510 69 34 0.0 1.0 0.00 0.00 0.00 45 1011.7
20260506200016 69 83 2.0 7.0 0.00 0.00 0.00 44 1011.1
20260506194517 68 105 5.0 9.0 0.00 0.00 0.00 48 1010.8
20260506193002 68 73 6.0 10.0 0.00 0.00 0.00 57 1011.3
20260506191510 68 103 4.0 10.0 0.00 0.00 0.00 55 1011.3
20260506190011 68 65 2.0 10.0 0.00 0.00 0.00 54 1010.5
20260506184515 67 102 5.0 9.0 0.00 0.00 0.00 54 1010.7
20260506183019 67 89 3.0 10.0 0.00 0.00 0.00 52 1010.8
20260506181507 67 72 4.0 9.0 0.00 0.00 0.00 52 1011.0
20260506180010 67 101 4.0 7.0 0.00 0.00 0.00 54 1011.2
20260506174510 67 81 3.0 9.0 0.00 0.00 0.00 55 1011.4
20260506173016 67 107 3.0 7.0 0.00 0.00 0.00 53 1011.4
20260506171516 68 97 4.0 7.0 0.00 0.00 0.00 48 1011.1
20260506170005 68 123 4.0 10.0 0.00 0.00 0.00 49 1011.1
20260506164532 68 70 5.0 11.0 0.00 0.00 0.00 50 1010.9
20260506163014 68 108 6.0 9.0 0.00 0.00 0.00 50 1011.2
20260506161522 68 115 7.0 10.0 0.00 0.00 0.00 48 1011.5
20260506160024 68 116 4.0 8.0 0.00 0.00 0.00 50 1011.8
20260506154508 68 105 6.0 9.0 0.00 0.00 0.00 49 1012.0
20260506153014 69 97 5.0 9.0 0.00 0.00 0.00 51 1012.1
20260506144511 68 92 6.0 10.0 0.00 0.00 0.00 58 1012.2
20260506143008 69 107 5.0 9.0 0.00 0.00 0.00 55 1012.2
20260506141508 68 98 4.0 10.0 0.00 0.00 0.00 65 1012.1
20260506140003 68 98 5.0 9.0 0.00 0.00 0.00 64 1012.2
20260506134504 69 88 5.0 9.0 0.00 0.00 0.00 60 1012.1
20260506133006 70 94 4.0 9.0 0.00 0.00 0.00 57 1012.4
20260506131512 70 84 5.0 9.0 0.00 0.00 0.00 51 1012.4
20260506130003 70 105 4.0 9.0 0.00 0.00 0.00 56 1012.6
20260506124505 70 94 5.0 12.0 0.00 0.00 0.00 55 1012.2
20260506123007 69 93 5.0 9.0 0.00 0.00 0.00 57 1012.3
20260506121512 70 98 4.0 10.0 0.00 0.00 0.00 58 1012.4
20260506120033 70 94 4.0 8.0 0.00 0.00 0.00 59 1012.4